Weather History for Greensboro, NC

Change the Weather History Date:

Thursday, May 1, 2014

  Actual Average Record
Temperature  
Mean Temperature 68 °F 63 °F  
Max Temperature 80 °F 74 °F 92 °F (1962)
Min Temperature 55 °F 52 °F 36 °F (1996)
Degree Days  
Heating Degree Days 0 4  
Month to date heating degree days 0 4  
Since 1 July heating degree days 3787 3550  
Cooling Degree Days 3 2  
Month to date cooling degree days 3 2  
Year to date cooling degree days 23 40  
Growing Degree Days 20 (Base 50)    
Moisture  
Dew Point 52 °F    
Average Humidity 58    
Maximum Humidity 87    
Minimum Humidity 28    
Precipitation  
Precipitation 0.00 in 0.10 in 3.24 in (1989)
Month to date precipitation 0.00 0.10  
Year to date precipitation 14.88 13.42  
Snow  
Snow 0.00 in 0.00 in 0.00 in (2002)
Month to date snowfall 0.0 0.0  
Since 1 July snowfall 15.3 7.5  
Snow Depth 0.00 in    
Sea Level Pressure  
Sea Level Pressure 29.83 in    
Wind  
Wind Speed 12 mph (SW)    
Max Wind Speed 25 mph    
Max Gust Speed 33 mph    
Visibility 10 miles    
Events      
T = Trace of Precipitation, MM = Missing Value Source: NWS Daily Summary

Daily Weather History Graph

Daily Weather History Graph

Search for Another Location

Airport:

Trip Planner

Search our weather history database for the weather conditions in past years. The results will help you decide how hot, cold, wet, or windy it might be!

Date:

Astronomy

May. 01, 2014 Rise Set
Actual Time 6:27 AM EDT 8:07 PM EDT
Civil Twilight 5:59 AM EDT 8:34 PM EDT
Nautical Twilight 5:26 AM EDT 9:07 PM EDT
Astronomical Twilight 4:51 AM EDT 9:43 PM EDT
Moon 8:15 AM EDT (5/1) 10:37 PM EDT (5/1)
Length of Visible Light 14h 35m
Length of Day
13h 40m
Waxing Crescent, 6% of the Moon is Illuminated
May 1
Waxing Crescent
May 6
First Quarter
May 14
Full
May 21
Last Quarter
May 28
New

Hourly Weather History & Observations

Time (EDT) Temp. Dew Point Humidity Pressure Visibility Wind Dir Wind Speed Gust Speed Precip Events Conditions
12:54 AM 70.0 °F 59.0 °F 68% 29.85 in 10.0 mi SW 10.4 mph 20.7 mph N/A   Mostly Cloudy
1:54 AM 69.1 °F 59.0 °F 70% 29.84 in 10.0 mi SSW 11.5 mph - N/A   Mostly Cloudy
2:54 AM 68.0 °F 59.0 °F 73% 29.83 in 10.0 mi SW 11.5 mph - N/A   Mostly Cloudy
3:54 AM 66.0 °F 59.0 °F 78% 29.84 in 10.0 mi SW 8.1 mph - N/A   Partly Cloudy
4:54 AM 64.9 °F 59.0 °F 81% 29.85 in 10.0 mi WSW 5.8 mph - N/A   Mostly Cloudy
5:04 AM 66.2 °F 60.8 °F 83% 29.88 in 10.0 mi WSW 3.5 mph - N/A   Mostly Cloudy
5:54 AM 64.9 °F 60.1 °F 84% 29.86 in 10.0 mi SW 4.6 mph - N/A   Overcast
6:54 AM 64.9 °F 60.1 °F 84% 29.87 in 10.0 mi SW 8.1 mph - N/A   Overcast
7:31 AM 66.2 °F 60.8 °F 83% 29.89 in 10.0 mi SW 8.1 mph - N/A   Overcast
7:54 AM 66.0 °F 60.1 °F 81% 29.87 in 10.0 mi WSW 6.9 mph - N/A   Mostly Cloudy
8:32 AM 66.2 °F 60.8 °F 83% 29.89 in 10.0 mi WSW 8.1 mph - N/A   Overcast
8:54 AM 66.9 °F 61.0 °F 81% 29.87 in 10.0 mi SW 11.5 mph - N/A   Overcast
9:09 AM 66.2 °F 60.8 °F 83% 29.90 in 10.0 mi SW 12.7 mph - N/A   Mostly Cloudy
9:54 AM 69.1 °F 59.0 °F 70% 29.87 in 10.0 mi SW 12.7 mph - N/A   Overcast
10:54 AM 72.0 °F 55.9 °F 57% 29.85 in 10.0 mi WSW 16.1 mph 24.2 mph N/A   Mostly Cloudy
11:54 AM 73.9 °F 53.1 °F 48% 29.83 in 10.0 mi SW 15.0 mph - N/A   Mostly Cloudy
12:54 PM 75.9 °F 53.1 °F 45% 29.82 in 10.0 mi SW 15.0 mph - N/A   Mostly Cloudy
1:54 PM 78.1 °F 50.0 °F 37% 29.80 in 10.0 mi WSW 17.3 mph 24.2 mph N/A   Mostly Cloudy
2:54 PM 77.0 °F 45.0 °F 32% 29.80 in 10.0 mi WSW 21.9 mph 31.1 mph N/A   Mostly Cloudy
3:54 PM 77.0 °F 41.0 °F 28% 29.76 in 10.0 mi West 18.4 mph 28.8 mph N/A   Overcast
4:54 PM 75.9 °F 46.0 °F 35% 29.76 in 10.0 mi SW 15.0 mph 21.9 mph N/A   Mostly Cloudy
5:54 PM 75.0 °F 45.0 °F 34% 29.75 in 10.0 mi SW 17.3 mph 23.0 mph N/A   Mostly Cloudy
6:54 PM 73.0 °F 39.9 °F 30% 29.75 in 10.0 mi WSW 13.8 mph - N/A   Overcast
7:54 PM 70.0 °F 39.9 °F 33% 29.76 in 10.0 mi WSW 10.4 mph - N/A   Mostly Cloudy
8:54 PM 68.0 °F 39.9 °F 36% 29.77 in 10.0 mi SW 11.5 mph - N/A   Mostly Cloudy
9:54 PM 64.9 °F 42.1 °F 43% 29.79 in 10.0 mi WSW 10.4 mph - N/A   Partly Cloudy
10:54 PM 61.0 °F 43.0 °F 52% 29.81 in 10.0 mi WSW 5.8 mph - N/A   Scattered Clouds
11:54 PM 59.0 °F 44.1 °F 58% 29.82 in 10.0 mi Calm Calm - N/A   Clear